Naples, Italy

1:49 PM CEST on March 28, 2017 (GMT +0200)
Naples

Weather History for LIRN - August, 2012

Change the Weather History Date:

Monday, August 6, 2012

  Actual Average Record
Temperature  
Mean Temperature 88 °F -  
Max Temperature 100 °F 84 °F 100 °F (2003)
Min Temperature 77 °F 63 °F 64 °F (2004)
Cooling Degree Days 24    
Growing Degree Days 38 (Base 50)    
Moisture  
Dew Point 54 °F    
Average Humidity 33    
Maximum Humidity 47    
Minimum Humidity 18    
Precipitation  
Precipitation 0.00 in 0.06 in - ()
Sea Level Pressure  
Sea Level Pressure 29.99 in    
Wind  
Wind Speed 4 mph ()    
Max Wind Speed 9 mph    
Max Gust Speed -    
Visibility 6.2 miles    
Events      
Averages and records for this station are not official NWS values.
T = Trace of Precipitation, MM = Missing Value Source: Averaged Metar Reports

Daily Weather History Graph

Daily Weather History Graph

Search for Another Location

Airport or City:

Trip Planner

Search our weather history database for the weather conditions in past years. The results will help you decide how hot, cold, wet, or windy it might be!

Date:

Astronomy

Aug. 06, 2012 Rise Set
Actual Time 6:04 AM CEST 8:12 PM CEST
Civil Twilight 5:33 AM CEST 8:42 PM CEST
Nautical Twilight 4:56 AM CEST 9:19 PM CEST
Astronomical Twilight 4:15 AM CEST 10:00 PM CEST
Moon 10:09 PM CEST (8/6) 10:38 AM CEST (8/6)
Length of Visible Light 15h 08m
Length of Day
14h 08m
Waning Gibbous, 80% of the Moon is Illuminated
Aug 6
Waning Gibbous
Aug 9
Last Quarter
Aug 17
New
Aug 24
First Quarter
Aug 31
Full

Hourly Weather History & Observations

Time (CEST) Temp. Heat Index Dew Point Humidity Pressure Visibility Wind Dir Wind Speed Gust Speed Precip Events Conditions
12:20 AM 80.6 °F 80.8 °F 57.2 °F 45% 29.95 in - North 2.3 mph - N/A   Clear
12:50 AM 78.8 °F - 57.2 °F 47% 29.95 in - North 2.3 mph - N/A   Clear
1:20 AM 80.6 °F 80.5 °F 55.4 °F 42% 29.98 in - North 3.5 mph - N/A   Clear
1:50 AM 78.8 °F - 53.6 °F 42% 29.98 in - North 2.3 mph - N/A   Clear
2:20 AM 78.8 °F - 53.6 °F 42% 29.98 in - North 2.3 mph - N/A   Clear
2:50 AM 78.8 °F - 53.6 °F 42% 29.98 in - NNE 3.5 mph - N/A   Clear
3:20 AM 77.0 °F - 55.4 °F 47% 29.98 in - NNW 2.3 mph - N/A   Clear
3:50 AM 77.0 °F - 53.6 °F 44% 29.98 in - North 2.3 mph - N/A   Clear
4:20 AM 77.0 °F - 53.6 °F 44% 29.98 in - North - - N/A   Clear
4:50 AM 77.0 °F - 53.6 °F 44% 29.98 in - North 3.5 mph - N/A   Clear
5:20 AM 78.8 °F - 53.6 °F 42% 29.98 in - North 3.5 mph - N/A   Clear
5:50 AM 77.0 °F - 53.6 °F 44% 29.98 in - NNE 4.6 mph - N/A   Clear
6:20 AM 77.0 °F - 53.6 °F 44% 29.98 in - NNE 4.6 mph - N/A   Clear
6:50 AM 77.0 °F - 55.4 °F 47% 29.98 in - NNE 3.5 mph - N/A   Clear
7:20 AM 78.8 °F - 57.2 °F 47% 29.98 in - NNW 3.5 mph - N/A   Clear
7:50 AM 82.4 °F 81.7 °F 55.4 °F 39% 29.98 in - North 3.5 mph - N/A   Clear
8:20 AM 84.2 °F 83.0 °F 55.4 °F 37% 29.98 in - Variable 2.3 mph - N/A   Clear
8:50 AM 86.0 °F 84.5 °F 55.4 °F 35% 29.98 in - North 4.6 mph - N/A   Clear
9:20 AM 87.8 °F 87.1 °F 59.0 °F 38% 29.98 in - ENE 5.8 mph - N/A   Clear
9:50 AM 89.6 °F 88.1 °F 57.2 °F 33% 29.98 in - NE 4.6 mph - N/A   Clear
10:20 AM 93.2 °F 91.3 °F 55.4 °F 28% 29.98 in - ENE 4.6 mph - N/A   Clear
10:50 AM 95.0 °F 93.0 °F 55.4 °F 26% 30.01 in - Variable 2.3 mph - N/A   Clear
11:20 AM 96.8 °F 94.4 °F 53.6 °F 23% 30.01 in 6.2 mi WNW 3.5 mph - N/A   Scattered Clouds
11:50 AM 98.6 °F - 51.8 °F 21% 30.01 in 6.2 mi South 6.9 mph - N/A   Scattered Clouds
12:20 PM 98.6 °F - 51.8 °F 21% 30.01 in 6.2 mi South 6.9 mph - N/A   Scattered Clouds
12:50 PM 96.8 °F - 48.2 °F 19% 30.01 in 6.2 mi South 9.2 mph - N/A   Scattered Clouds
1:20 PM 100.4 °F 98.4 °F 53.6 °F 21% 30.01 in - WSW 5.8 mph - N/A   Clear
1:50 PM 98.6 °F - 48.2 °F 18% 30.01 in - South 9.2 mph - N/A   Clear
2:20 PM 98.6 °F - 48.2 °F 18% 30.01 in - SW 9.2 mph - N/A   Clear
2:50 PM 98.6 °F - 48.2 °F 18% 30.01 in - SW 8.1 mph - N/A   Clear
3:20 PM 98.6 °F - 48.2 °F 18% 30.01 in - SW 9.2 mph - N/A   Clear
3:50 PM 98.6 °F - 48.2 °F 18% 30.01 in - SW 8.1 mph - N/A   Clear
4:20 PM 98.6 °F - 50.0 °F 19% 29.98 in - South 8.1 mph - N/A   Clear
4:50 PM 98.6 °F - 50.0 °F 19% 29.98 in - South 6.9 mph - N/A   Clear
5:20 PM 98.6 °F - 51.8 °F 21% 29.98 in - South 8.1 mph - N/A   Clear
5:50 PM 96.8 °F 95.1 °F 55.4 °F 25% 29.98 in - SW 4.6 mph - N/A   Clear
6:20 PM 95.0 °F 93.0 °F 55.4 °F 26% 29.98 in - SSW 3.5 mph - N/A   Clear
6:50 PM 93.2 °F 91.3 °F 55.4 °F 28% 29.98 in - South 4.6 mph - N/A   Clear
7:20 PM 91.4 °F 89.9 °F 57.2 °F 31% 29.98 in - South 4.6 mph - N/A   Clear
7:50 PM 91.4 °F 90.7 °F 59.0 °F 34% 30.01 in - SSW 3.5 mph - N/A   Clear
8:20 PM 89.6 °F - 50.0 °F 26% 30.01 in - WNW 6.9 mph - N/A   Clear
8:50 PM 89.6 °F - 51.8 °F 27% 30.01 in - NNW 3.5 mph - N/A   Clear
9:20 PM 87.8 °F 86.1 °F 55.4 °F 33% 30.01 in - NW 3.5 mph - N/A   Clear
9:50 PM 87.8 °F 87.1 °F 59.0 °F 38% 30.01 in - Variable 2.3 mph - N/A   Clear
10:20 PM 86.0 °F 85.4 °F 59.0 °F 40% 30.01 in - NNW 3.5 mph - N/A   Clear
10:50 PM 86.0 °F 86.1 °F 60.8 °F 43% 30.01 in - Variable 2.3 mph - N/A   Clear
11:20 PM 84.2 °F 84.4 °F 60.8 °F 45% 30.04 in - North 4.6 mph - N/A   Clear
11:50 PM 84.2 °F 84.4 °F 60.8 °F 45% 30.04 in - NNW 3.5 mph - N/A   Clear